Location: Firdgum
(53.2488°N, 5.5615°E)
Time: 05:43:43
(UTC+00:00)

SL-24 R/B - Pass Details

Date: 08 December 2019
Orbit: 617 x 1346 km, 97.9° (Epoch: 19 January)

Event Time Altitude Azimuth Distance (km) Brightness Sun altitude
Rises 05:39:29 0° 172° (S) 3,058 7.9 -16.5°
Reaches altitude 10° 05:41:48 10° 176° (S) 2,082 7.0 -16.2°
Maximum altitude 05:46:12 64° 258° (WSW) 701 4.0 -15.6°
Enters shadow 05:50:11 11° 340° (NNW) 1,897 6.2 -15.0°
